Other Public Products
Issued by NWS Grand Forks, ND

Home | Current Version | Previous Version | Graphics & Text | Print | Product List | Glossary On
Versions: 1 2 3 4 5 6 7 8 9 10 11 12 13 14 15 16 17 18 19 20 21 22 23 24 25 26 27 28 29 30 31 32 33 34 35 36 37 38 39 40 41 42 43 44 45 46 47 48 49 50
083
FPUS83 KFGF 241931
OPUFGF
PRAIRIE TO PINES WEATHER ROUNDUP
NATIONAL WEATHER SERVICE EASTERN NORTH DAKOTA/GRAND FORKS ND
200 PM CDT FRI MAR 24 2017

 **SATELLITE DATA USED TO AUGMENT SKY COVER AT AUTOMATED STATIONS**
 *****  WEATHER ACROSS EASTERN NORTH DAKOTA  *****

CITY           SKY/WX    TMP DP  RH WIND       PRES   REMARKS
GRAND FORKS    CLOUDY    36  28  73 N13       30.22R
GRAND FORKS AF CLOUDY    34  27  76 N12       30.22R
GRAND CITY NWS NOT AVBL
BUXTON         NOT AVBL
DEVILS LAKE    CLOUDY    32  26  78 NE10      30.23R WCI  24
FARGO          CLOUDY    36  30  79 N16       30.19S
WAHPETON ARPT  FAIR      41  32  70 N14G22    30.15S
$$

 *****  WEATHER ACROSS CENTRAL AND WESTERN NORTH DAKOTA  *****

CITY           SKY/WX    TMP DP  RH WIND       PRES   REMARKS
JAMESTOWN      PTSUNNY   38  31  76 N9        30.18S
BISMARCK       FAIR      43  32  65 E8        30.19S
MINOT          FAIR      38  28  67 E14       30.19F
MINOT AFB      FAIR      35  27  72 SE14      30.19S
GARRISON         N/A     38  30  73 E9        30.16F
WILLISTON      FAIR      51  32  48 SE8       30.10F
DICKINSON      FAIR      52  33  48 SE10      30.09F
HETTINGER      FAIR      50  38  63 SE8       30.12F
$$

 *****  OTHER OBSERVATIONS NORTHEAST NORTH DAKOTA  *****

CITY           SKY/WX    TMP DP  RH WIND       PRES   REMARKS
WALHALLA       NOT AVBL
LANGDON        CLOUDY    32  27  80 NE9       30.23R WCI  24
CAVALIER         N/A     34  27  75 N10       30.25R
GRAFTON        CLOUDY    34  28  80 N13       30.26R WCI  25
CANDO          NOT AVBL
FORT TOTTEN      N/A     36  27  70 NE5       29.95S
ROLLA          CLOUDY    30  27  86 NE7       30.22S WCI  23
RUGBY            N/A     32  27  80 E7        30.23F
 ***** THE ABOVE OBSERVATIONS ARE NON NWS ARE NOT QUALITY
        CONTROLLED AND MAY MIS-REPORT RAIN FOR SNOW...
$$

 *****  OTHER OBSERVATIONS SOUTHEAST NORTH DAKOTA *****

CITY           SKY/WX    TMP DP  RH WIND       PRES   REMARKS
COOPERSTOWN    CLOUDY    34  30  86 N13       30.20S WCI  25
VALLEY CITY    CLOUDY    37  34  87 N12       30.19F
OAKES          NOT AVBL
GWINNER        CLEAR     45  34  65 MISG      30.16S
SHEYENNE NWR     N/A     41  29  63 N13       29.95S
BUFFALO        NOT AVBL
WYNDMERE         N/A     43  36  75 N13         N/A
 ***** THE ABOVE OBSERVATIONS ARE NON NWS ARE NOT QUALITY
       CONTROLLED AND MAY MIS-REPORT RAIN FOR SNOW...
$$

  *****  WEATHER ACROSS NORTHERN MINNESOTA  *****

CITY           SKY/WX    TMP DP  RH WIND       PRES   REMARKS
FLAG ISLAND    CLOUDY    34  25  69 N12       30.19S
WARROAD        CLOUDY    36  27  69 NE8       30.21R
ROSEAU         CLOUDY    36  28  75 N7        30.20S
HALLOCK        CLOUDY    36  27  69 N7        30.23S
THF RVR FALLS  CLOUDY   N/A N/A N/A N7        30.20R
HALSTAD          N/A     36  28  73 N12         N/A
FOSSTON        CLOUDY    37  34  87 N3        30.17S
BAUDETTE       CLOUDY    39  25  57 NE12      30.15R
WASKISH        CLOUDY    39  30  70 W6        30.15R
CROOKSTON      CLOUDY    36  32  87 N12       30.21S
$$
  *****  WEATHER ACROSS CENTRAL AND WEST MINNESOTA  *****

CITY           SKY/WX    TMP DP  RH WIND       PRES   REMARKS
BEMIDJI        CLOUDY    38  30  73 N7        30.15R
PARK RAPIDS    PTSUNNY   41  29  62 N12       30.12R
WADENA         PTSUNNY   41  34  75 N12       30.10F
DETROIT LAKES  FAIR      39  32  75 NW13      30.14F
MOORHEAD       CLOUDY    36  30  80 N14       30.18F
FERGUS FALLS   FAIR      43  32  65 N10       30.15F
ELBOW LAKE     FAIR      42  34  72 N13G18    30.12R
MORRIS MN      FAIR      43  36  75 N15       30.11R
STAPLES        CLOUDY    39  32  75 N12       30.09F
WHEATON        CLOUDY    41  34  75 N15G23    30.15F
$$
  *****  WEATHER ELSEWHERE ACROSS MINNESOTA  *****

CITY           SKY/WX    TMP DP  RH WIND       PRES   REMARKS
DULUTH         CLOUDY    38  34  85 N9        30.09R
INTRNTL FALLS  CLOUDY    38  26  62 N9        30.15R
ELY            CLOUDY    36  32  87 CALM      30.13R
CLOQUET        CLOUDY    37  34  87 NE8       30.10R
BRAINERD       CLOUDY    39  32  76 N12       30.10S
HIBBING        CLOUDY    36  33  89 N9        30.13R
ALEXANDRIA     CLOUDY    39  34  82 N14       30.10S
SAINT CLOUD    CLOUDY    39  34  82 N12G22    30.08S
MINNEAPOLIS    CLOUDY    44  35  70 NE10      30.06R
$$

  *****  WEATHER ACROSS SOUTH DAKOTA  *****

CITY           SKY/WX    TMP DP  RH WIND       PRES   REMARKS
SIOUX FALLS    CLOUDY    43  37  79 NE15      30.08R
BROOKINGS      CLOUDY    38  34  85 NE9       30.11R
WATERTOWN      CLOUDY    37  34  89 N17       30.09R
HURON          CLOUDY    46  37  71 N13       30.12R
SISSETON         N/A     40  35  83 NE17      30.13S
ABERDEEN       FAIR      41  30  65 N14       30.16R
MITCHELL       CLOUDY    46  38  73 N17       30.11R
PIERRE         FAIR      56  36  47 N12       30.10S
MOBRIDGE       FAIR      53  33  46 MISG      30.11S
RAPID CITY     PTSUNNY   56  34  43 N14G24    30.10S
$$

  *****  SOME WEATHER IN NEARBY STATES *****

CITY           SKY/WX    TMP DP  RH WIND       PRES   REMARKS
GLASGOW MT     FAIR      56  29  35 SE12      30.01F
GREAT FALLS MT FAIR      60  20  21 S21G28    29.87F
CHEYENNE WY    PTSUNNY   47  25  42 N23G36    30.12S
SCOTTSBLUFF NE FAIR      57  32  38 N22G29    30.11S
OMAHA NE       CLOUDY    47  42  83 N16       29.95R
DES MOINES IA  LGT RAIN  49  46  90 CALM      29.93F FOG
DAVENPORT IA   FAIR      76  41  28 SW17G29   29.89R
CHICAGO IL     FAIR      81  42  25 W23G32    29.88F
EAU CLAIRE WI  LGT RAIN  40  37  89 N10       30.02S
LA CROSSE WI   CLOUDY    44  41  89 N7        30.01R FOG
$$

  *****  SOME NATIONAL WEATHER *****

CITY           SKY/WX    TMP DP  RH WIND       PRES   REMARKS
LA GUARDIA NY  CLOUDY    50  29  44 S10       30.22F
RALEIGH NC     PTSUNNY   68  45  43 SW16      30.41F
ATLANTA GA     PTSUNNY   72  48  42 S13G18    30.35F
NEW ORLEANS LA PTSUNNY   79  65  62 S18G31    30.18F
OKLAHOMA CITY  FAIR      78  27  15 S25G33    29.71F
ALBUQUERQUE NM FAIR      61  25  25 NW21G30   30.05S
SALT LAKE CITY FAIR      53  32  44 S10       30.21F
LOS ANGELES CA FAIR      66  50  56 W13       30.24F
BOISE ID       LGT RAIN  48  40  73 SE12      30.04S
SEATTLE WA     PTSUNNY   53  44  71 S17       29.81S
$$

*** WEATHER ACROSS MANITOBA...SASKATCHEWAN AND ONTARIO ***
                ***ONTARIO***

CITY           SKY/WX    TMP DP  RH WIND       PRES   REMARKS
GERALDTON      PTSUNNY   30  18  59 N12G18    30.13R WCI  21
THUNDER BAY    PTSUNNY   39  32  75 NE9       30.11R
SIOUX LOOKOUT  PTSUNNY   32  18  55 N5        30.18R
TORONTO        CLOUDY    57  46  67 W13       29.91F
BIG TROUT LK   SUNNY     12  -4  48 NW9       30.36R WCI   0
PICKLE LAKE    SUNNY     27   3  36 NE8       30.22R WCI  18
DRYDEN         CLOUDY    32  25  74 NE9G17    30.17R WCI  24
KENORA         CLOUDY    32  23  69 NE8       30.19  WCI  25
$$
                *** MANITOBA***

CITY           SKY/WX    TMP DP  RH WIND       PRES   REMARKS
BRANDON        CLOUDY    30  23  74 E8        30.24S WCI  23
DAUPHIN        CLOUDY    30  23  74 E6        30.26S WCI  24
ISLAND LAKE    SUNNY     14   0  52 VRB5      30.37F WCI   6
PILOT MOUND      N/A     30  23  74 NE6         N/A  WCI  24
THE PAS        CLOUDY    16   5  62 SE10      30.29F WCI   3
THOMPSON       MOSUNNY   10 -11  37 SE6       30.38F WCI   1
WINNIPEG       CLOUDY    32  25  74 N12       30.26R WCI  23
LYNN LAKE      PTSUNNY   12   3  67 SE10      30.25F WCI  -1
CHURCHILL      SUNNY     -4 -13  65 W9        30.44S WCI -20
GILLAM         SUNNY      5  -9  51 NW6       30.44F WCI  -6
$$
                ***SASKATCHEWAN***

CITY           SKY/WX    TMP DP  RH WIND       PRES   REMARKS
ESTEVAN        MOSUNNY   36  30  80 E16       30.14F
KINDERSLEY     PTSUNNY   45  34  65 SE23      29.90F
LLOYDMINSTER   CLOUDY    28  28 100 SE17      29.95F WCI  16
PRINCE ALBERT  PTSUNNY   32  21  64 SE7       30.12F
REGINA         PTSUNNY   39  32  75 SE17      30.07F
YORKTON        PTSUNNY   32  25  74 SE12      30.17F WC



USA.gov is the U.S. government's official web portal to all federal, state and local government web resources and services.